| time (UTC) | temp F | wind direction | speed MPH | gust MPH | rain 1hr in | rain 24hr in | rain mn in | humidity % | barometer mb |
| 20260502211331 | 61 | 294 | 4.0 | 10.0 | 0.00 | 0.01 | 0.01 | 75 | 1012.2 |
| 20260502210332 | 61 | 298 | 2.0 | 6.0 | 0.00 | 0.01 | 0.01 | 74 | 1012.4 |
| 20260502205329 | 60 | 315 | 3.0 | 8.0 | 0.00 | 0.01 | 0.01 | 77 | 1012.5 |
| 20260502204329 | 60 | 302 | 3.0 | 8.0 | 0.00 | 0.01 | 0.01 | 76 | 1012.5 |
| 20260502203329 | 59 | 327 | 3.0 | 10.0 | 0.00 | 0.01 | 0.01 | 78 | 1012.6 |
| 20260502202332 | 59 | 307 | 3.0 | 8.0 | 0.00 | 0.01 | 0.01 | 78 | 1012.6 |
| 20260502201329 | 58 | 296 | 4.0 | 9.0 | 0.00 | 0.01 | 0.01 | 79 | 1012.9 |
| 20260502200330 | 57 | 302 | 3.0 | 10.0 | 0.00 | 0.01 | 0.01 | 80 | 1013.0 |
| 20260502195329 | 57 | 300 | 2.0 | 8.0 | 0.00 | 0.01 | 0.01 | 82 | 1013.1 |
| 20260502194326 | 56 | 286 | 3.0 | 9.0 | 0.00 | 0.01 | 0.01 | 82 | 1013.1 |
| 20260502193326 | 56 | 346 | 2.0 | 5.0 | 0.00 | 0.01 | 0.01 | 82 | 1013.5 |
| 20260502192330 | 55 | 317 | 2.0 | 4.0 | 0.00 | 0.01 | 0.01 | 83 | 1013.4 |
| 20260502191325 | 55 | 302 | 2.0 | 6.0 | 0.00 | 0.01 | 0.01 | 83 | 1013.4 |
| 20260502190326 | 55 | 332 | 1.0 | 4.0 | 0.00 | 0.01 | 0.01 | 82 | 1013.5 |
| 20260502185812 | 55 | 329 | 2.0 | 8.0 | 0.00 | 0.01 | 0.01 | 82 | 1013.5 |
| 20260502184325 | 55 | 284 | 1.0 | 4.0 | 0.00 | 0.01 | 0.01 | 82 | 1013.6 |
| 20260502183325 | 55 | 306 | 1.0 | 4.0 | 0.00 | 0.01 | 0.01 | 82 | 1013.8 |
| 20260502182325 | 54 | 277 | 2.0 | 4.0 | 0.00 | 0.01 | 0.01 | 83 | 1013.8 |
| 20260502181325 | 54 | 5 | 1.0 | 5.0 | 0.00 | 0.01 | 0.01 | 83 | 1013.8 |
| 20260502180326 | 55 | 306 | 2.0 | 4.0 | 0.00 | 0.01 | 0.01 | 82 | 1013.8 |
| 20260502164320 | 55 | 9 | 0.0 | 3.0 | 0.00 | 0.01 | 0.01 | 81 | 1014.1 |
| 20260502163319 | 55 | 265 | 1.0 | 3.0 | 0.00 | 0.01 | 0.01 | 82 | 1014.0 |
| 20260502162319 | 54 | 302 | 1.0 | 3.0 | 0.00 | 0.01 | 0.01 | 84 | 1013.9 |
| 20260502161323 | 53 | 308 | 1.0 | 4.0 | 0.00 | 0.01 | 0.01 | 84 | 1013.9 |
| 20260502160321 | 52 | 350 | 2.0 | 7.0 | 0.00 | 0.01 | 0.01 | 85 | 1013.9 |
| 20260502152309 | 51 | 311 | 1.0 | 3.0 | 0.00 | 0.01 | 0.01 | 88 | 1014.2 |
| 20260502151309 | 51 | 346 | 2.0 | 4.0 | 0.00 | 0.01 | 0.01 | 88 | 1014.3 |
| 20260502150310 | 51 | 9 | 1.0 | 4.0 | 0.00 | 0.01 | 0.01 | 88 | 1014.3 |
| 20260502130310 | 50 | 268 | 0.0 | 1.0 | 0.00 | 0.00 | 0.00 | 85 | 1013.8 |
| 20260502123305 | 50 | 338 | 1.0 | 2.0 | 0.00 | 0.00 | 0.00 | 84 | 1013.9 |
| 20260502122746 | 51 | 304 | 0.0 | 1.0 | 0.00 | 0.00 | 0.00 | 84 | 1014.1 |
| 20260502121304 | 51 | 294 | 0.0 | 2.0 | 0.00 | 0.00 | 0.00 | 83 | 1014.2 |
| 20260502120306 | 51 | 271 | 0.0 | 3.0 | 0.00 | 0.00 | 0.00 | 83 | 1014.2 |
| 20260502115308 | 51 | 314 | 1.0 | 3.0 | 0.00 | 0.00 | 0.00 | 83 | 1014.3 |
| 20260502114306 | 51 | 307 | 0.0 | 1.0 | 0.00 | 0.00 | 0.00 | 83 | 1014.4 |
| 20260502113308 | 51 | 286 | 0.0 | 2.0 | 0.00 | 0.00 | 0.00 | 83 | 1014.3 |
| 20260502112743 | 51 | 306 | 0.0 | 2.0 | 0.00 | 0.00 | 0.00 | 83 | 1014.2 |
| 20260502111305 | 51 | 327 | 0.0 | 1.0 | 0.00 | 0.00 | 0.00 | 83 | 1014.3 |
| 20260502110305 | 51 | 275 | 0.0 | 1.0 | 0.00 | 0.00 | 0.00 | 83 | 1014.4 |
| 20260502105306 | 51 | 286 | 0.0 | 1.0 | 0.00 | 0.00 | 0.00 | 84 | 1014.3 |
| 20260502104307 | 51 | 303 | 0.0 | 1.0 | 0.00 | 0.00 | 0.00 | 84 | 1014.4 |
| 20260502103746 | 50 | 285 | 0.0 | 1.0 | 0.00 | 0.00 | 0.00 | 84 | 1014.4 |
| 20260502102746 | 50 | 286 | 0.0 | 1.0 | 0.00 | 0.00 | 0.00 | 85 | 1014.4 |
| 20260502101745 | 50 | 261 | 0.0 | 1.0 | 0.00 | 0.00 | 0.00 | 85 | 1014.4 |
| 20260502100307 | 50 | 263 | 0.0 | 0.0 | 0.00 | 0.00 | 0.00 | 84 | 1014.3 |
| 20260502091305 | 51 | 295 | 1.0 | 3.0 | 0.00 | 0.00 | 0.00 | 82 | 1014.5 |
| 20260502090304 | 51 | 317 | 1.0 | 1.0 | 0.00 | 0.00 | 0.00 | 82 | 1014.7 |
| 20260502071310 | 54 | 292 | 0.0 | 3.0 | 0.00 | 0.00 | 0.00 | 77 | 1015.5 |
| 20260502071009 | 54 | 284 | 1.0 | 2.0 | 0.00 | 0.00 | 0.00 | 77 | 1015.4 |
| 20260502065256 | 54 | 299 | 1.0 | 2.0 | 0.00 | 0.00 | 0.00 | 77 | 1015.3 |
| 20260502064259 | 54 | 300 | 1.0 | 3.0 | 0.00 | 0.00 | 0.00 | 77 | 1015.4 |
| 20260502063255 | 54 | 310 | 1.0 | 3.0 | 0.00 | 0.00 | 0.00 | 77 | 1015.5 |
| 20260502063216 | 54 | 294 | 1.0 | 4.0 | 0.00 | 0.00 | 0.00 | 77 | 1015.7 |
| 20260502061256 | 55 | 292 | 1.0 | 4.0 | 0.00 | 0.00 | 0.00 | 76 | 1015.7 |
| 20260502060248 | 55 | 285 | 1.0 | 3.0 | 0.00 | 0.00 | 0.00 | 75 | 1015.6 |
| 20260502055248 | 55 | 304 | 1.0 | 5.0 | 0.00 | 0.00 | 0.00 | 75 | 1015.6 |
| 20260502054252 | 55 | 302 | 2.0 | 7.0 | 0.00 | 0.00 | 0.00 | 74 | 1015.2 |
| 20260502053729 | 55 | 334 | 2.0 | 7.0 | 0.00 | 0.00 | 0.00 | 73 | 1014.9 |
| 20260502052250 | 56 | 290 | 1.0 | 6.0 | 0.00 | 0.00 | 0.00 | 73 | 1015.0 |
| 20260502051737 | 56 | 298 | 2.0 | 8.0 | 0.00 | 0.00 | 0.00 | 72 | 1015.1 |
| 20260502050250 | 56 | 302 | 1.0 | 7.0 | 0.00 | 0.00 | 0.00 | 71 | 1015.0 |
| 20260502045248 | 57 | 304 | 1.0 | 4.0 | 0.00 | 0.00 | 0.00 | 70 | 1015.1 |
| 20260502044248 | 58 | 280 | 1.0 | 4.0 | 0.00 | 0.00 | 0.00 | 69 | 1014.9 |
| 20260502043246 | 58 | 303 | 2.0 | 5.0 | 0.00 | 0.00 | 0.00 | 68 | 1014.4 |
| 20260502042246 | 59 | 298 | 2.0 | 4.0 | 0.00 | 0.00 | 0.00 | 67 | 1014.4 |
| 20260502041245 | 60 | 281 | 1.0 | 4.0 | 0.00 | 0.00 | 0.00 | 66 | 1014.4 |
| 20260502041208 | 60 | 297 | 1.0 | 4.0 | 0.00 | 0.00 | 0.00 | 65 | 1014.4 |
| 20260502035244 | 61 | 265 | 1.0 | 3.0 | 0.00 | 0.00 | 0.00 | 68 | 1014.2 |
| 20260502034244 | 61 | 302 | 2.0 | 6.0 | 0.00 | 0.00 | 0.00 | 71 | 1014.0 |
| 20260502033725 | 62 | 321 | 2.0 | 6.0 | 0.00 | 0.00 | 0.00 | 70 | 1013.8 |
| 20260502032243 | 62 | 304 | 3.0 | 7.0 | 0.00 | 0.00 | 0.00 | 70 | 1013.7 |
| 20260502031241 | 63 | 325 | 2.0 | 9.0 | 0.00 | 0.00 | 0.00 | 70 | 1013.7 |
| 20260502030241 | 63 | 309 | 3.0 | 5.0 | 0.00 | 0.00 | 0.00 | 70 | 1013.6 |
| 20260502030204 | 64 | 11 | 3.0 | 8.0 | 0.00 | 0.00 | 0.00 | 69 | 1013.5 |
| 20260502024240 | 64 | 326 | 3.0 | 8.0 | 0.00 | 0.00 | 0.00 | 69 | 1013.5 |
| 20260502023732 | 65 | 313 | 3.0 | 11.0 | 0.00 | 0.00 | 0.00 | 68 | 1013.3 |
| 20260502022242 | 65 | 325 | 4.0 | 12.0 | 0.00 | 0.00 | 0.00 | 67 | 1013.1 |
| 20260502021243 | 66 | 292 | 4.0 | 10.0 | 0.00 | 0.00 | 0.00 | 68 | 1012.9 |
| 20260502020243 | 67 | 302 | 3.0 | 11.0 | 0.00 | 0.00 | 0.00 | 69 | 1012.8 |
| 20260502015242 | 68 | 298 | 3.0 | 6.0 | 0.00 | 0.00 | 0.00 | 68 | 1012.8 |
| 20260502014240 | 68 | 324 | 2.0 | 6.0 | 0.00 | 0.00 | 0.00 | 66 | 1012.8 |
| 20260502013240 | 69 | 342 | 2.0 | 7.0 | 0.00 | 0.00 | 0.00 | 65 | 1012.7 |
| 20260502012728 | 69 | 306 | 2.0 | 6.0 | 0.00 | 0.00 | 0.00 | 64 | 1012.7 |
| 20260502011239 | 69 | 302 | 2.0 | 6.0 | 0.00 | 0.00 | 0.00 | 63 | 1012.6 |
| 20260502010238 | 69 | 309 | 2.0 | 6.0 | 0.00 | 0.00 | 0.00 | 62 | 1012.6 |
| 20260502005239 | 70 | 313 | 2.0 | 5.0 | 0.00 | 0.00 | 0.00 | 60 | 1012.6 |
| 20260502004241 | 71 | 313 | 1.0 | 4.0 | 0.00 | 0.00 | 0.00 | 58 | 1012.6 |
| 20260502003722 | 71 | 33 | 2.0 | 6.0 | 0.00 | 0.00 | 0.00 | 57 | 1012.7 |
| 20260502002242 | 72 | 304 | 2.0 | 4.0 | 0.00 | 0.00 | 0.00 | 55 | 1012.7 |
| 20260502001238 | 72 | 289 | 1.0 | 5.0 | 0.00 | 0.00 | 0.00 | 54 | 1012.8 |
| 20260502000240 | 72 | 310 | 2.0 | 6.0 | 0.00 | 0.00 | 0.00 | 53 | 1012.8 |
| 20260501235235 | 72 | 284 | 1.0 | 5.0 | 0.00 | 0.00 | 0.00 | 52 | 1013.0 |
| 20260501234236 | 72 | 26 | 1.0 | 4.0 | 0.00 | 0.00 | 0.00 | 52 | 1013.0 |
| 20260501233235 | 72 | 205 | 1.0 | 4.0 | 0.00 | 0.00 | 0.00 | 53 | 1013.2 |
| 20260501232233 | 72 | 291 | 1.0 | 4.0 | 0.00 | 0.00 | 0.00 | 52 | 1013.3 |
| 20260501231718 | 71 | 0 | 1.0 | 3.0 | 0.00 | 0.00 | 0.00 | 53 | 1013.4 |
| 20260501230234 | 71 | 9 | 0.0 | 3.0 | 0.00 | 0.00 | 0.00 | 54 | 1013.6 |
| 20260501225239 | 70 | 291 | 2.0 | 7.0 | 0.00 | 0.00 | 0.00 | 56 | 1013.6 |
| 20260501224232 | 69 | 197 | 1.0 | 5.0 | 0.00 | 0.00 | 0.00 | 58 | 1013.8 |
| 20260501223713 | 69 | 99 | 1.0 | 5.0 | 0.00 | 0.00 | 0.00 | 61 | 1014.0 |
| 20260501222232 | 68 | 175 | 1.0 | 4.0 | 0.00 | 0.00 | 0.00 | 63 | 1013.9 |
| 20260501221230 | 68 | 74 | 1.0 | 5.0 | 0.00 | 0.00 | 0.00 | 63 | 1014.3 |
| 20260501220235 | 68 | 181 | 2.0 | 6.0 | 0.00 | 0.00 | 0.00 | 65 | 1014.4 |
| 20260501215230 | 67 | 138 | 1.0 | 6.0 | 0.00 | 0.00 | 0.00 | 64 | 1014.7 |
| 20260501214712 | 67 | 309 | 2.0 | 6.0 | 0.00 | 0.00 | 0.00 | 65 | 1014.8 |
| 20260501213232 | 67 | 186 | 1.0 | 5.0 | 0.00 | 0.00 | 0.00 | 66 | 1014.8 |
| 20260501212230 | 66 | 205 | 2.0 | 5.0 | 0.00 | 0.00 | 0.00 | 67 | 1014.9 |